User: anonymous   Login
Location: Unspecified
(0.0000°N, 0.0000°E)
Time: 12:47:47
(UTC+00:00)
Language:

APEX - Orbit

View from above orbital plane
View from above orbital plane
View from above satellite
View from above satellite

Ground track
Ground track

The orbit data is extracted from the following two-line orbital elements,

1 23191U 94046A   18201.03680061  .00004826  00000-0  15973-3 0  9993
2 23191  69.9213  13.7826 0577833  50.1549 314.8960 14.43866921173873
Epoch (UTC): 20 July 2018 00:52:59
Eccentricity: 0.0577833
inclination: 69.9213°
perigee height: 334 km
apogee height: 1157 km
right ascension of ascending node: 13.7826°
argument of perigee: 50.1549°
revolutions per day: 14.43866921
mean anomaly at epoch: 314.8960°
orbit number at epoch: 17387

The dashed part of the orbit path shows where the satellite is in the earth's shadow,  

DLR